TITAN 3C TRANSTAGE DEB, 39299

Orbit data source: Space-Track

TITAN 3C TRANSTAGE DEB, 39299 is space debris originally from a launch on Thu, 26 Sep 1968 UTC launched from the Air Force Eastern Test Range (AFETR). Debris objects in space refer to the collection of defunct objects orbiting the Earth. Examples of debris include non-operational satellites, rocket bodies, and fragments generated from explosions, collisions, or faulty payload assembly.

Loading next visibility...
TITAN 3C TRANSTAGE DEB details
Identifier
39299, 1968-081AK
Orbit
Active
Last TLE update21 hours ago
Origin
Flag of USUSAF SSD (US)
ManufacturerUnknown
MissionSpacecraft
Bus & MotorUnknown
MassUnknown
Launch date (UTC)
1968-09-26 (56 years ago)
Launch vehicleUnknown
Launch site
Air Force Eastern Test Range (AFETR)
Object type
Payload
Rocket body
Debris
Shape & HBRUnknown
Radar Cross SectionRCS unknown

Expand to show TLE details & history

TLE from 21 hours ago
0 TITAN 3C TRANSTAGE DEB
1 39299U 68081AK  24325.47638094  .00000052  00000-0  00000-0 0  9999
2 39299   1.4377 337.2366 0146972  59.5546  26.1991  1.00390953 61420
Epoch: 2024-11-20T11:25Z
Definitive object data (Epoch: 2024-11-20T11:25:59.313Z)
Latitude1.45299°
Longitude-167.74523°
Altitude35,196.068 km
Speed3.117 km/s
True Right ascension04h 14m 53s
True Declination1° 27' 05"
Sunlit
Object was in daylight at TLE epoch
Visualization TLE readout
Latitude1.04171°
Longitude151.15431°
Altitude35,150.329 km
Speed3.12 km/s
Apparent Right ascension01h 05m 04s
Apparent Declination-4° 47' 27"
Sunlit
Object is in daylight
Visualization observer readout
Local Sidereal Time05:44:10
Azimuth253.045° W
Elevation12.158°
Doppler factor1
Orbital elements
Apogee altitude36,373.52 km
Perigee altitude35,135.063 km
Semi-major axis42,132.428 km
Eccentricity0.0146972
Inclination1.4377°
RAAN337.2366°
Arg. of periapsis59.5546°
True anomaly26.95508°
Mean anomaly26.1991°
Eccentric anomaly26.57583°
Mean motion0.25097 °/min
BSTARUnknown
Orbital period1434.45 mins
Loading maneuver chart data...

TITAN 3C TRANSTAGE DEB Visibility forecast

Observer location: undefined°, undefined

Span
Click to sort rows by Start time (UTC) header in descending order
Start Az.
Max El. time (UTC)
Max El. Az.
Max El.
End time (UTC)
End Az.
1440 mins2024-11-21 08:41:16.297Z253.03° W2024-11-21 14:10:16.297Z251.528° W13.49°2024-11-22 08:41:16.297Z252.705° W
|